Home   Weather   Porto Novo   Past weeks

Flag for Benin Past Weather in Porto Novo, Benin — Yesterday and Last 2 Weeks

Now
90 °F

Passing clouds.


Feels Like: 105 °F
Forecast: 81 / 93 °F
Wind: 14 mph from Southwest

Location: Cotonou Airport

Current Time: Feb 25, 2017 at 5:22:54 pm

Latest Report: Feb 25, 2017 at 5:00 pm


Visibility: N/A

Pressure: 29.74 "Hg

Humidity: 71%

Dew Point: 79 °F

Location of Porto NovoLocation

Past Weather in Porto Novo — Graph

°F

Porto Novo Temperature Yesterday

Maximum temperature yesterday: 91 °F (at 12:00 pm)
Minimum temperature yesterday: 82 °F (at 4:00 am)
Average temperature yesterday: 86 °F

High & Low Weather Summary for the Past Weeks

 TemperatureHumidityPressure
High97 °F (Feb 17, 3:00 pm)94% (Feb 11, 5:00 am)29.92 "Hg (Feb 11, 5:00 am)
Low75 °F (Feb 18, 8:00 am)14% (Feb 17, 3:00 pm)29.68 "Hg (Feb 10, 4:00 pm)
Average85 °F76%29.79 "Hg
* Reported Feb 10 4:00 pm — Feb 25 4:00 pm, Porto Novo, Weather by CustomWeather, © 2017

Note: Actual official high and low records may vary slightly from our data, if they occured in-between our weather recording intervals... More about our weather records

Advertising

Porto Novo Weather History for the Previous 24 Hours

Scroll right to see more
 ConditionsComfort  
Time TempWeatherWind HumidityBarometerVisibility
4:00 pm
Sat, Feb 25
91 °FPassing clouds.15 mph71%29.74 "HgN/A
3:00 pm91 °FPassing clouds.15 mph71%29.74 "HgN/A
2:00 pm91 °FPassing clouds.13 mph67%29.77 "HgN/A
1:00 pm91 °FPassing clouds.13 mph67%29.80 "HgN/A
12:00 pm91 °FScattered clouds.9 mph67%29.83 "HgN/A
11:00 am90 °FScattered clouds.12 mph71%29.83 "HgN/A
10:00 am88 °FScattered clouds.10 mph75%29.83 "Hg5 mi
9:00 am86 °FScattered clouds.9 mph79%29.83 "Hg5 mi
8:00 am84 °FPassing clouds.10 mph84%29.80 "Hg4 mi
7:00 am82 °FPassing clouds.8 mph89%29.80 "Hg4 mi
6:00 am82 °FPassing clouds.7 mph89%29.77 "Hg5 mi
5:00 am84 °FPassing clouds.13 mph84%29.77 "Hg5 mi
4:00 am84 °FPassing clouds.14 mph84%29.74 "Hg5 mi
3:00 am84 °FPassing clouds.14 mph84%29.77 "Hg5 mi
2:00 am84 °FPassing clouds.15 mph84%29.77 "Hg5 mi
1:00 am84 °FPassing clouds.15 mph84%29.80 "Hg5 mi
12:00 am84 °FPassing clouds.14 mph84%29.80 "Hg5 mi
11:00 pm
Fri, Feb 24
84 °FPassing clouds.14 mph84%29.80 "Hg5 mi
10:00 pm84 °FPassing clouds.14 mph84%29.80 "Hg5 mi
9:00 pm86 °FPassing clouds.12 mph84%29.80 "HgN/A
8:00 pm86 °FPassing clouds.13 mph79%29.77 "HgN/A
7:00 pm86 °FPassing clouds.12 mph79%29.74 "HgN/A
6:00 pm88 °FPassing clouds.13 mph75%29.71 "HgN/A
5:00 pm90 °FScattered clouds.14 mph71%29.71 "HgN/A
Weather by CustomWeather, © 2017

See weather overviewHow to use our weather pages